Home > Weather > Esch-sur-Alzette > Past weeks

Flag for Luxembourg Past Weather in Esch-sur-Alzette, Luxembourg — Yesterday and Last 2 Weeks

Now
61 °F

Cool.


Feels Like: 61 °F
Forecast: 57 / 75 °F
Wind: 3 mph from West

Location: Luxembourg Airport

Current Time: Aug 29, 2016 at 4:19:16 AM

Latest Report: Aug 29, 2016 at 3:50 AM


Visibility: N/A

Pressure: 30.07 "Hg

Humidity: 88%

Dew Point: 57 °F

Location of Esch-sur-AlzetteLocation

Past Weather in Esch-sur-Alzette — Graph

°F

Esch-sur-Alzette Temperature Yesterday

Maximum temperature yesterday: 86 °F (at 1:20 PM)
Minimum temperature yesterday: 64 °F (at 11:50 PM)
Average temperature yesterday: 74 °F

High & Low Weather Summary for the Past Weeks

 TemperatureHumidityPressure
High93 °F (Aug 26, 3:50 PM)100% (Aug 19, 2:50 AM)30.39 "Hg (Aug 19, 2:50 AM)
Low52 °F (Aug 22, 3:50 AM)28% (Aug 26, 5:20 PM)29.83 "Hg (Aug 18, 4:20 AM)
Average70 °F65%30.08 "Hg
* Reported Aug 14 2:20 AM — Aug 29 2:50 AM, Esch-sur-Alzette, Weather by CustomWeather, © 2016

Note: Actual official high and low records may vary slightly from our data, if they occured in-between our weather recording intervals... More about our weather records

Advertising

Esch-sur-Alzette Weather History for the Previous 24 Hours

Scroll right to see more
 ConditionsComfort  
Time TempWeatherWind HumidityBarometerVisibility
2:50 AM
Mon, Aug 29
63 °FMild.5 mph88%30.07 "HgN/A
2:20 AM63 °FMild.5 mph88%30.07 "HgN/A
1:50 AM63 °FClear.5 mph88%30.07 "Hg10 mi
1:20 AM64 °FClear.7 mph83%30.07 "Hg10 mi
12:50 AM64 °FClear.5 mph83%30.07 "Hg10 mi
12:20 AM64 °FClear.3 mph83%30.07 "Hg10 mi
11:50 PM
Sun, Aug 28
64 °FClear.3 mph83%30.07 "Hg10 mi
11:20 PM68 °FPassing clouds.3 mph78%30.07 "HgN/A
10:50 PM68 °FPassing clouds.5 mph78%30.07 "HgN/A
10:20 PM68 °FClear.6 mph78%30.07 "Hg10 mi
9:50 PM70 °FPassing clouds.5 mph73%30.07 "HgN/A
9:20 PM72 °FPassing clouds.9 mph69%30.04 "HgN/A
8:50 PM72 °FPassing clouds.6 mph69%30.04 "HgN/A
8:20 PM73 °FPassing clouds.7 mph65%30.04 "HgN/A
7:50 PM73 °FPassing clouds.8 mph65%30.04 "HgN/A
7:20 PM75 °FPassing clouds.10 mph61%30.04 "HgN/A
6:50 PM77 °FPassing clouds.12 mph57%30.04 "HgN/A
6:20 PM75 °FPassing clouds.12 mph61%30.04 "HgN/A
5:50 PM77 °FPassing clouds.13 mph57%30.04 "HgN/A
5:20 PM77 °FPassing clouds.12 mph57%30.04 "HgN/A
4:50 PM77 °FPassing clouds.12 mph61%30.04 "HgN/A
4:20 PM77 °FPassing clouds.16 mph61%30.04 "HgN/A
3:50 PM77 °FPassing clouds.14 mph61%30.04 "HgN/A
3:20 PM75 °FSprinkles. Partly sunny.13 mph69%30.04 "HgN/A
2:50 PM77 °FPartly sunny.14 mph61%30.04 "HgN/A
2:20 PM77 °FSprinkles. Partly sunny.16 mph65%30.04 "HgN/A
1:50 PM82 °FWarm.14 mph45%30.01 "HgN/A
1:20 PM86 °FPassing clouds.13 mph40%30.01 "HgN/A
12:50 PM84 °FPassing clouds.14 mph43%30.01 "HgN/A
12:20 PM82 °FPassing clouds.9 mph55%30.01 "HgN/A
11:50 AM81 °FPassing clouds.9 mph54%30.01 "HgN/A
11:20 AM79 °FPassing clouds.5 mph58%30.01 "HgN/A
10:50 AM77 °FPassing clouds.6 mph61%30.01 "HgN/A
10:20 AM75 °FSunny.8 mph65%30.01 "Hg10 mi
9:50 AM75 °FPassing clouds.6 mph65%30.01 "HgN/A
9:20 AM73 °FPassing clouds.6 mph69%30.01 "HgN/A
8:50 AM72 °FPassing clouds.6 mph73%30.01 "HgN/A
8:20 AM70 °FPassing clouds.5 mph73%30.01 "HgN/A
7:50 AM70 °FSunny.1 mph73%30.01 "Hg10 mi
7:20 AM68 °FClear.2 mph73%30.01 "Hg10 mi
6:50 AM68 °FClear.1 mph73%30.01 "Hg10 mi
6:20 AM68 °FClear.3 mph73%29.98 "Hg10 mi
5:50 AM70 °FClear.3 mph69%30.01 "Hg10 mi
5:20 AM70 °FClear.2 mph69%29.98 "Hg10 mi
4:50 AM70 °FClear.2 mph69%30.01 "Hg10 mi
4:20 AM72 °FPassing clouds.1 mph65%30.01 "HgN/A
Weather by CustomWeather, © 2016

See weather overviewHow to use our weather pages